CATSAT-1 (44029 NORAD) Tracking and Keplerian Element Data

This shows tracking and keplerian element data for the satellite.

Feedback or suggestion? Click here.




ElementValue
Catalog44029
NameCATSAT-1
Epoch Orbit349
Epoch Day53.50544868
Epoch Year2019
RAAN211.3498
Inclination51.6386
Eccentricity0.0005344
Argument of Perigee77.9293
Mean Anonmoly282.2296
Mean Motion15.54124472
Decay Rate0.00010011
L11 44029U 98067PV 19053.50544868 .00010011 00000-0 15826-3 0 9995
L22 44029 51.6386 211.3498 0005344 77.9293 282.2296 15.54124472 3493

Live tracking and technical data element details for CATSAT-1 (NORAD 44029). CATSAT-1 can be tracked NOW for your location showing map with azimuth and elevation plus other details from your city location.

Track the satellite on the map from your city or location and see movement details for azimuth, elevation, latitude, longitude, range, height, and movement on the map or in text.







IsCatalogInMostPopularTable: catalog: 44029, numindb: 8
Update: records affected: 1



GetName: 44029 CATSAT-1

Hit Count: updated at: Sat, 23 Feb 2019 16:32:08 GMT